Preview of NWS' New Version of Forecast
This preview is not operational and should not be used for support decisions.

Regional Weather Roundup (RWR)

Issued by National Weather Service (NWS)

                            
000
ASUS43 KBIS 200110
RWRND 

NORTH DAKOTA REGIONAL WEATHER ROUNDUP
NATIONAL WEATHER SERVICE BISMARCK ND
800 PM CDT WED JUN 19 2019

NOTE: "FAIR" INDICATES FEW OR NO CLOUDS BELOW 12,000 FEET WITH NO
SIGNIFICANT WEATHER AND/OR OBSTRUCTIONS TO VISIBILITY.


NDZ001>003-009>011-017-200200-
NORTHWEST NORTH DAKOTA
  
CITY           SKY/WX    TMP DP  RH WIND       PRES   REMARKS
WILLISTON      CLOUDY    65  52  62 SE16G37   29.66F                  
MINOT          SUNNY     68  47  46 SE16G24   29.72F                  
MINOT AFB      SUNNY     67  47  48 SE14      29.71F                  
$$
 
NDZ018>021-031>035-040>046-200200-
SOUTHWEST NORTH DAKOTA
  
CITY           SKY/WX    TMP DP  RH WIND       PRES   REMARKS
BISMARCK       CLOUDY    58  54  86 E5        29.74F                  
DICKINSON      CLOUDY    58  54  86 E15G25    29.65F                  
GARRISON         N/A     61  53  75 SE13      29.73F                  
HETTINGER ARPT PTSUNNY   64  57  78 E14       29.67F                  
$$
 
NDZ004>008-012>016-024-026-027-054-200200-
NORTHEAST NORTH DAKOTA
  
CITY           SKY/WX    TMP DP  RH WIND       PRES   REMARKS
GRAND FORKS    CLOUDY    70  52  52 SE7       29.75F                  
GRND FRKS AFB  MOSUNNY   65  55  69 SW10      29.77S                  
DEVILS LAKE    PTSUNNY   65  52  62 S14       29.78R                  
$$
 
NDZ022-023-025-028>030-036>039-047>053-200200-
SOUTHEAST NORTH DAKOTA
  
CITY           SKY/WX    TMP DP  RH WIND       PRES   REMARKS
FARGO          CLOUDY    67  52  58 NW12      29.76S                  
JAMESTOWN      LGT RAIN  57  55  93 E5        29.77F                  
$$